Home   Weather   Sanikiluaq   Past weeks
Flag for Canada

Past Weather in Sanikiluaq, Nunavut, Canada — Yesterday and Last 2 Weeks

Now
30 °F

Ice fog.


Feels Like: 27 °F
Forecast: 35 / 28 °F
Wind: 3 mph from Northwest

Location: Kuujjuarapik

Current Time: May 19, 2019 at 8:57:53 am

Latest Report: May 19, 2019 at 8:18 am


Visibility: 6 mi

Pressure: 30.15 "Hg

Humidity: 100%

Dew Point: 30 °F

Location of SanikiluaqLocation

Past Weather in Sanikiluaq — Graph

°F

Sanikiluaq Temperature Yesterday

Maximum temperature yesterday: 34 °F (at 10:05 am)
Minimum temperature yesterday: 32 °F (at 12:00 am)
Average temperature yesterday: 33 °F

High & Low Weather Summary for the Past Weeks

 TemperatureHumidityPressure
High61 °F (May 14, 2:00 pm)100% (May 6, 3:37 am)30.52 "Hg (May 6, 3:37 am)
Low18 °F (May 4, 10:00 pm)29% (May 14, 2:00 pm)29.62 "Hg (May 10, 2:00 pm)
Average33 °F85%29.94 "Hg
* Reported May 4 8:00 am — May 19 8:05 am, Sanikiluaq. Weather by CustomWeather, © 2019

Note: Actual official high and low records may vary slightly from our data, if they occured in-between our weather recording intervals... More about our weather records

Advertising

Sanikiluaq Weather History for the Previous 24 Hours

Scroll right to see more
 ConditionsComfort  
Time TempWeatherWind HumidityBarometerVisibility
8:05 am
Sun, May 19
32 °FIce fog.3 mph100%30.14 "Hg3 mi
7:44 am30 °FIce fog.3 mph100%30.14 "Hg3 mi
7:20 am30 °FLow clouds.5 mph100%30.14 "Hg9 mi
6:59 am32 °FIce fog.5 mph100%30.13 "Hg1 mi
6:36 am32 °FIce fog.5 mph100%30.14 "Hg1 mi
6:25 am32 °FIce fog.5 mph100%30.14 "Hg1 mi
6:00 am30 °FIce fog.5 mph100%30.13 "Hg1 mi
5:00 am32 °FIce fog.5 mph100%30.13 "Hg0 mi
4:21 am32 °FIce fog.6 mph100%30.12 "Hg1 mi
4:08 am32 °FIce fog.6 mph100%30.12 "Hg1 mi
3:32 am32 °FIce fog.5 mph100%30.12 "Hg1 mi
3:00 am32 °FIce fog.3 mph100%30.12 "Hg1 mi
2:00 am32 °FIce fog.3 mph100%30.12 "Hg1 mi
1:21 am32 °FIce fog.6 mph100%30.12 "Hg0 mi
12:46 am32 °FIce fog.10 mph100%30.11 "Hg0 mi
12:36 am32 °FIce fog.7 mph100%30.12 "Hg0 mi
12:11 am32 °FLight freezing rain. Ice fog.8 mph100%30.11 "Hg0 mi
11:43 pm
Sat, May 18
32 °FFog.6 mph100%30.12 "Hg0 mi
11:18 pm32 °FLight rain. Fog.8 mph100%30.12 "Hg0 mi
11:00 pm32 °FFog.8 mph100%30.13 "Hg0 mi
10:00 pm32 °FFog.6 mph100%30.12 "Hg1 mi
9:00 pm32 °FFog.7 mph100%30.11 "Hg0 mi
8:00 pm32 °FLight rain. Fog.8 mph100%30.11 "Hg0 mi
7:02 pm32 °FLight rain. Fog.7 mph100%30.11 "Hg1 mi
6:28 pm34 °FFog.8 mph93%30.10 "Hg1 mi
6:00 pm34 °FLight rain. Fog.7 mph100%30.10 "Hg0 mi
5:00 pm34 °FLight rain. Fog.8 mph100%30.09 "Hg0 mi
4:00 pm34 °FLight rain. Fog.9 mph100%30.09 "Hg1 mi
3:39 pm34 °FLight rain. Fog.10 mph100%30.09 "Hg0 mi
3:10 pm34 °FFog.12 mph100%30.08 "Hg0 mi
2:58 pm34 °FFog.10 mph100%30.08 "Hg0 mi
2:12 pm34 °FLight rain. Fog.12 mph93%30.07 "Hg0 mi
1:00 pm34 °FFog.9 mph100%30.06 "Hg0 mi
12:59 pm34 °FFog.9 mph100%30.06 "Hg0 mi
12:37 pm34 °FLight rain. Fog.10 mph100%30.05 "Hg0 mi
12:13 pm34 °FFog.7 mph100%30.05 "Hg0 mi
11:00 am34 °FLight rain. Fog.6 mph100%30.04 "Hg0 mi
10:59 am34 °FLight rain. Fog.6 mph100%30.04 "Hg0 mi
10:18 am34 °FFog.7 mph100%30.03 "Hg0 mi
10:05 am34 °FLight rain. Fog.8 mph93%30.03 "Hg0 mi
9:00 am32 °FIce fog.7 mph100%30.03 "Hg1 mi
8:59 am32 °FIce fog.6 mph100%30.03 "Hg1 mi
8:39 am32 °FIce fog.8 mph100%30.02 "Hg3 mi
8:25 am32 °FLight rain. Ice fog.7 mph100%30.02 "Hg2 mi
8:00 am32 °FFog.6 mph100%30.01 "Hg0 mi
Weather by CustomWeather, © 2019

See weather overview